Home > Weather > Vevay > Past weeks

Flag for U.S.A. Weather for the Past 2 Weeks in Vevay, Indiana, U.S.A.

Now
36 °F

Mostly cloudy.


Feels Like: 29 °F
Forecast: 28 / 41 °F
Wind: 9 mph from Northwest

Location: Cincinnati / Northern Kentucky International Airport

Current Time: Feb 8, 2016 at 9:44:29 AM

Latest Report: Feb 8, 2016 at 9:03 AM


Visibility: 8 mi

Pressure: 29.65 "Hg

Humidity: 93%

Dew point: 34 °F

Location of VevayLocation

Historic Weather in Vevay — Graph

°F

Vevay Temperature Yesterday

Maximum temperature yesterday: 53 °F (at 2:52 PM)
Minimum temperature yesterday: 31 °F (at 4:52 AM)
Average temperature yesterday: 41 °F

High & Low Weather Summary for the Past Weeks

 TemperatureHumidityPressure
High64 °F (Jan 31, 4:52 PM)96% (Feb 6, 7:47 AM)30.45 "Hg (Feb 6, 7:47 AM)
Low13 °F (Jan 24, 7:52 AM)27% (Feb 7, 2:52 PM)29.57 "Hg (Feb 3, 3:52 AM)
Average39 °F66%30.01 "Hg
* Reported Jan 24 7:52 AM — Feb 8 7:58 AM, Vevay, Weather by CustomWeather, © 2016

Note: Actual official high and low records may vary slightly from our data, if they occured in-between our weather recording intervals... More about our weather records

Advertising

Vevay Weather History for the Previous 24 Hours

 ConditionsComfort  
Time TempWeatherWind HumidityBarometerVisibility
7:58 AM
Mon, Feb 8
36 °FLight rain. Fog.9 mph93%29.66 "Hg3 mi
6:52 AM36 °FLight rain. Mostly cloudy.9 mph92%29.67 "Hg7 mi
5:52 AM37 °FMostly cloudy.6 mph89%29.68 "Hg10 mi
4:52 AM38 °FLight rain. Mostly cloudy.No wind83%29.68 "Hg10 mi
3:52 AM39 °FLight rain. Mostly cloudy.12 mph82%29.70 "Hg7 mi
2:52 AM41 °FLight rain. Overcast.12 mph76%29.70 "Hg10 mi
1:52 AM43 °FOvercast.9 mph60%29.72 "Hg10 mi
12:52 AM45 °FMostly cloudy.5 mph42%29.74 "Hg10 mi
11:52 PM
Sun, Feb 7
45 °FOvercast.9 mph40%29.76 "Hg10 mi
10:52 PM45 °FOvercast.9 mph40%29.78 "Hg10 mi
9:52 PM45 °FOvercast.7 mph40%29.81 "Hg10 mi
8:52 PM46 °FPassing clouds.8 mph37%29.84 "Hg10 mi
7:52 PM47 °FPassing clouds.8 mph36%29.86 "Hg10 mi
6:52 PM47 °FPassing clouds.9 mph36%29.87 "Hg10 mi
5:52 PM49 °FPartly sunny.8 mph33%29.88 "Hg10 mi
3:52 PM50 °FPartly sunny.16 mph32%29.90 "Hg10 mi
2:52 PM53 °FScattered clouds.15 mph27%29.92 "Hg10 mi
1:52 PM52 °FScattered clouds.17 mph28%29.96 "Hg10 mi
12:52 PM50 °FScattered clouds.12 mph35%30.02 "Hg10 mi
11:52 AM47 °FPartly sunny.10 mph41%30.06 "Hg10 mi
10:52 AM42 °FPartly sunny.10 mph47%30.08 "Hg10 mi
9:52 AM41 °FBroken clouds.12 mph51%30.09 "Hg10 mi
Weather by CustomWeather, © 2016

See weather overviewHow to use our weather pages